CSN3593 ZHCC-ZSPD

Flight info

Callsign CSN3593
Flight time 1h 19m
Altitude 31100
Route RUM9X RUMGU W594 EPGOS W128 FYG B208 HFE R343 SASAN SAS92A
Aircraft A321/M-SDE3FGHIRWY/LB1

Departure

Time 2026-05-07 15:45
Airport Zhengzhou Xinzheng International Airport (ZHCC)

Arrival

Time 2026-05-07 17:04
Airport Shanghai Pudong International Airport (ZSPD)
Time Latitude Longitude Altitude Speed Heading
2026-05-07 15:28 34.52226 113.85025 505 ft 0 kts 292°
2026-05-07 15:30 34.52225 113.85029 505 ft 3 kts 292°
2026-05-07 15:30 34.52214 113.85060 505 ft 4 kts 292°
2026-05-07 15:30 34.52205 113.85085 505 ft 4 kts 285°
2026-05-07 15:31 34.52207 113.85109 505 ft 4 kts 221°
2026-05-07 15:31 34.52230 113.85125 505 ft 4 kts 202°
2026-05-07 15:31 34.52237 113.85129 505 ft 0 kts 202°
2026-05-07 15:39 34.52229 113.85125 505 ft 7 kts 202°
2026-05-07 15:39 34.52107 113.85062 505 ft 14 kts 202°
2026-05-07 15:39 34.52016 113.85017 505 ft 15 kts 202°
2026-05-07 15:40 34.51928 113.84958 505 ft 14 kts 239°
2026-05-07 15:40 34.51949 113.84846 505 ft 14 kts 292°
2026-05-07 15:40 34.51988 113.84732 505 ft 15 kts 292°
2026-05-07 15:40 34.52030 113.84612 505 ft 16 kts 292°
2026-05-07 15:41 34.52076 113.84479 505 ft 24 kts 292°
2026-05-07 15:41 34.52175 113.84193 505 ft 39 kts 292°
2026-05-07 15:41 34.52274 113.83889 505 ft 38 kts 291°
2026-05-07 15:41 34.52374 113.83597 505 ft 37 kts 292°
2026-05-07 15:42 34.52471 113.83313 505 ft 36 kts 292°
2026-05-07 15:42 34.52565 113.83036 505 ft 35 kts 292°
2026-05-07 15:42 34.52658 113.82765 505 ft 34 kts 292°
2026-05-07 15:42 34.52728 113.82539 505 ft 16 kts 269°
2026-05-07 15:43 34.52695 113.82503 505 ft 6 kts 198°
2026-05-07 15:43 34.52628 113.82471 505 ft 0 kts 202°
2026-05-07 15:43 34.52621 113.82467 505 ft 2 kts 202°
2026-05-07 15:43 34.52605 113.82459 505 ft 3 kts 202°
2026-05-07 15:44 34.52579 113.82446 505 ft 6 kts 202°
2026-05-07 15:44 34.52521 113.82438 504 ft 10 kts 153°
2026-05-07 15:44 34.52484 113.82512 503 ft 11 kts 112°
2026-05-07 15:44 34.52452 113.82605 504 ft 16 kts 112°
2026-05-07 15:45 34.52316 113.83005 505 ft 87 kts 112°
2026-05-07 15:45 34.52003 113.83926 499 ft 147 kts 112°
2026-05-07 15:45 34.51548 113.85257 514 ft 192 kts 112°
2026-05-07 15:45 34.50947 113.86708 1098 ft 191 kts 125°
2026-05-07 15:46 34.49106 113.89122 2129 ft 208 kts 136°
2026-05-07 15:46 34.47991 113.90385 2275 ft 231 kts 136°
2026-05-07 15:46 34.46773 113.91755 2643 ft 243 kts 135°
2026-05-07 15:47 34.45519 113.93171 2943 ft 253 kts 135°
2026-05-07 15:47 34.44212 113.94657 3006 ft 260 kts 135°
2026-05-07 15:47 34.42884 113.96174 3267 ft 264 kts 135°
2026-05-07 15:47 34.41537 113.97740 3819 ft 271 kts 131°
2026-05-07 15:48 34.40321 113.99460 4632 ft 268 kts 123°
2026-05-07 15:48 34.39333 114.01349 5337 ft 271 kts 117°
2026-05-07 15:48 34.38418 114.03359 6002 ft 275 kts 116°
2026-05-07 15:48 34.37515 114.05411 6669 ft 278 kts 115°
2026-05-07 15:49 34.36587 114.07480 7289 ft 282 kts 116°
2026-05-07 15:49 34.35626 114.09569 7913 ft 286 kts 117°
2026-05-07 15:49 34.34634 114.11674 8517 ft 290 kts 117°
2026-05-07 15:49 34.33616 114.13797 9117 ft 294 kts 118°
2026-05-07 15:50 34.32579 114.15940 9700 ft 297 kts 118°
2026-05-07 15:50 34.31525 114.18112 10283 ft 302 kts 118°
2026-05-07 15:50 34.30427 114.20376 10416 ft 323 kts 118°
2026-05-07 15:50 34.29251 114.22793 10548 ft 343 kts 118°
2026-05-07 15:51 34.28010 114.25341 10673 ft 361 kts 118°
2026-05-07 15:51 34.26705 114.28017 10807 ft 377 kts 118°
2026-05-07 15:51 34.25344 114.30806 10930 ft 393 kts 118°
2026-05-07 15:51 34.23902 114.33676 11098 ft 406 kts 123°
2026-05-07 15:52 34.22083 114.36321 11507 ft 413 kts 134°
2026-05-07 15:52 34.19867 114.38551 11965 ft 417 kts 144°
2026-05-07 15:52 34.17329 114.40275 12432 ft 420 kts 156°
2026-05-07 15:52 34.14619 114.41628 12868 ft 423 kts 157°
2026-05-07 15:53 34.11886 114.42985 13316 ft 426 kts 157°
2026-05-07 15:53 34.09138 114.44357 13756 ft 429 kts 157°
2026-05-07 15:53 34.06374 114.45743 14184 ft 431 kts 157°
2026-05-07 15:53 34.03594 114.47135 14596 ft 434 kts 158°
2026-05-07 15:54 34.00799 114.48531 14986 ft 437 kts 158°
2026-05-07 15:54 33.97981 114.49933 15382 ft 439 kts 158°
2026-05-07 15:54 33.95189 114.51320 15784 ft 441 kts 158°
2026-05-07 15:54 33.92341 114.52732 16160 ft 444 kts 158°
2026-05-07 15:55 33.89479 114.54145 16542 ft 446 kts 158°
2026-05-07 15:55 33.86595 114.55568 16914 ft 449 kts 158°
2026-05-07 15:55 33.83698 114.57004 17291 ft 451 kts 158°
2026-05-07 15:55 33.80789 114.58445 17645 ft 454 kts 158°
2026-05-07 15:56 33.77859 114.59894 17999 ft 456 kts 158°
2026-05-07 15:56 33.74918 114.61348 18340 ft 459 kts 159°
2026-05-07 15:56 33.71959 114.62807 18678 ft 461 kts 159°
2026-05-07 15:56 33.68984 114.64275 18998 ft 463 kts 159°
2026-05-07 15:57 33.65999 114.65745 19311 ft 465 kts 159°
2026-05-07 15:57 33.62990 114.67207 19624 ft 468 kts 160°
2026-05-07 15:57 33.59957 114.68656 19939 ft 470 kts 160°
2026-05-07 15:57 33.56907 114.70100 20250 ft 472 kts 160°
2026-05-07 15:58 33.53844 114.71544 20560 ft 474 kts 160°
2026-05-07 15:58 33.50824 114.73167 20845 ft 478 kts 153°
2026-05-07 15:58 33.48015 114.75336 21129 ft 483 kts 144°
2026-05-07 15:58 33.45500 114.78022 21408 ft 487 kts 135°
2026-05-07 15:59 33.43266 114.81085 21682 ft 490 kts 131°
2026-05-07 15:59 33.41050 114.84187 21939 ft 492 kts 132°
2026-05-07 15:59 33.38811 114.87301 22191 ft 494 kts 132°
2026-05-07 15:59 33.36559 114.90418 22454 ft 496 kts 132°
2026-05-07 16:00 33.34295 114.93547 22684 ft 498 kts 132°
2026-05-07 16:00 33.32022 114.96684 22890 ft 500 kts 132°
2026-05-07 16:00 33.29742 114.99831 23098 ft 502 kts 132°
2026-05-07 16:00 33.27454 115.02993 23293 ft 504 kts 132°
2026-05-07 16:01 33.25158 115.06165 23479 ft 505 kts 133°
2026-05-07 16:01 33.22856 115.09345 23655 ft 507 kts 133°
2026-05-07 16:01 33.20547 115.12528 23820 ft 508 kts 133°
2026-05-07 16:01 33.18225 115.15724 23963 ft 510 kts 133°
2026-05-07 16:02 33.16687 115.17842 24066 ft 510 kts 133°
2026-05-07 16:02 33.14364 115.21039 24292 ft 510 kts 133°
2026-05-07 16:02 33.12037 115.24233 24523 ft 509 kts 133°
2026-05-07 16:02 33.08929 115.28497 24828 ft 509 kts 133°
2026-05-07 16:03 33.07395 115.30602 24986 ft 508 kts 133°
2026-05-07 16:03 33.04325 115.34809 25297 ft 507 kts 133°
2026-05-07 16:03 33.02763 115.36951 25448 ft 507 kts 133°
2026-05-07 16:03 33.00451 115.40121 25675 ft 507 kts 133°
2026-05-07 16:04 32.98329 115.43481 25895 ft 509 kts 124°
2026-05-07 16:04 32.96624 115.47176 26127 ft 510 kts 115°
2026-05-07 16:04 32.94931 115.52391 26424 ft 510 kts 111°
2026-05-07 16:04 32.94099 115.55070 26579 ft 510 kts 111°
2026-05-07 16:05 32.92862 115.59022 26814 ft 509 kts 111°
2026-05-07 16:05 32.91617 115.62969 27046 ft 509 kts 111°
2026-05-07 16:05 32.90368 115.66908 27274 ft 508 kts 112°
2026-05-07 16:05 32.88532 115.72019 27565 ft 506 kts 120°
2026-05-07 16:06 32.87323 115.74452 27716 ft 505 kts 125°
2026-05-07 16:06 32.85212 115.77769 27946 ft 502 kts 132°
2026-05-07 16:06 32.82998 115.80906 28171 ft 502 kts 132°
2026-05-07 16:06 32.80757 115.84084 28391 ft 501 kts 132°
2026-05-07 16:07 32.78516 115.87259 28619 ft 501 kts 132°
2026-05-07 16:07 32.76278 115.90425 28852 ft 501 kts 132°
2026-05-07 16:07 32.74039 115.93596 29076 ft 500 kts 132°
2026-05-07 16:07 32.71805 115.96762 29303 ft 500 kts 132°
2026-05-07 16:08 32.69574 115.99919 29523 ft 499 kts 132°
2026-05-07 16:08 32.67341 116.03075 29755 ft 499 kts 132°
2026-05-07 16:08 32.65111 116.06219 29974 ft 498 kts 132°
2026-05-07 16:08 32.62878 116.09364 30206 ft 498 kts 132°
2026-05-07 16:09 32.60651 116.12498 30424 ft 497 kts 132°
2026-05-07 16:09 32.58420 116.15636 30636 ft 497 kts 133°
2026-05-07 16:09 32.56192 116.18765 30841 ft 497 kts 132°
2026-05-07 16:09 32.53982 116.21907 31045 ft 497 kts 132°
2026-05-07 16:10 32.51794 116.25075 31224 ft 497 kts 131°
2026-05-07 16:10 32.47426 116.31481 31273 ft 503 kts 131°
2026-05-07 16:11 32.43021 116.37928 31275 ft 504 kts 131°
2026-05-07 16:11 32.38592 116.44348 31275 ft 504 kts 131°
2026-05-07 16:12 32.34152 116.50754 31284 ft 504 kts 132°
2026-05-07 16:12 32.29709 116.57160 31286 ft 504 kts 131°
2026-05-07 16:13 32.25266 116.63574 31298 ft 505 kts 131°
2026-05-07 16:13 32.20810 116.69992 31299 ft 505 kts 131°
2026-05-07 16:14 32.16335 116.76383 31301 ft 505 kts 132°
2026-05-07 16:14 32.11788 116.82701 31303 ft 505 kts 133°
2026-05-07 16:15 32.07217 116.88987 31317 ft 505 kts 133°
2026-05-07 16:15 32.02690 116.95244 31309 ft 505 kts 133°
2026-05-07 16:16 31.98143 117.01547 31318 ft 505 kts 133°
2026-05-07 16:16 31.93602 117.07860 31317 ft 505 kts 133°
2026-05-07 16:17 31.89063 117.14171 31317 ft 505 kts 133°
2026-05-07 16:17 31.84519 117.20462 31317 ft 505 kts 133°
2026-05-07 16:18 31.80186 117.26958 31317 ft 507 kts 123°
2026-05-07 16:18 31.77486 117.34616 31316 ft 511 kts 104°
2026-05-07 16:19 31.76643 117.42905 31308 ft 512 kts 95°
2026-05-07 16:19 31.76070 117.51235 31316 ft 512 kts 95°
2026-05-07 16:20 31.75478 117.59572 31315 ft 512 kts 95°
2026-05-07 16:20 31.74886 117.67915 31316 ft 512 kts 95°
2026-05-07 16:21 31.74293 117.76254 31321 ft 512 kts 95°
2026-05-07 16:21 31.73699 117.84579 31309 ft 512 kts 95°
2026-05-07 16:22 31.73100 117.92909 31310 ft 512 kts 95°
2026-05-07 16:22 31.72490 118.01233 31306 ft 512 kts 95°
2026-05-07 16:23 31.71878 118.09554 31306 ft 511 kts 95°
2026-05-07 16:23 31.71276 118.17878 31301 ft 512 kts 95°
2026-05-07 16:24 31.70705 118.26207 31289 ft 511 kts 95°
2026-05-07 16:24 31.70138 118.34530 31299 ft 512 kts 95°
2026-05-07 16:25 31.69554 118.42808 31291 ft 512 kts 95°
2026-05-07 16:25 31.68944 118.51191 31290 ft 512 kts 95°
2026-05-07 16:26 31.68336 118.59468 31288 ft 513 kts 95°
2026-05-07 16:26 31.67731 118.67807 31289 ft 513 kts 95°
2026-05-07 16:27 31.67114 118.76211 31289 ft 513 kts 95°
2026-05-07 16:27 31.66501 118.84490 31286 ft 513 kts 95°
2026-05-07 16:28 31.65870 118.92829 31295 ft 513 kts 95°
2026-05-07 16:28 31.65233 119.01186 31288 ft 514 kts 95°
2026-05-07 16:28 31.64919 119.05366 31166 ft 514 kts 95°
2026-05-07 16:29 31.64655 119.09536 30910 ft 513 kts 94°
2026-05-07 16:29 31.64438 119.13723 30659 ft 513 kts 93°
2026-05-07 16:29 31.64257 119.17912 30408 ft 514 kts 92°
2026-05-07 16:29 31.64101 119.22100 30156 ft 514 kts 92°
2026-05-07 16:30 31.63950 119.26295 29910 ft 515 kts 92°
2026-05-07 16:30 31.63789 119.30500 29661 ft 516 kts 92°
2026-05-07 16:30 31.63611 119.34702 29412 ft 516 kts 93°
2026-05-07 16:30 31.63418 119.38913 29163 ft 517 kts 93°
2026-05-07 16:31 31.63214 119.43124 28914 ft 517 kts 93°
2026-05-07 16:31 31.63002 119.47337 28664 ft 518 kts 93°
2026-05-07 16:31 31.62791 119.51558 28411 ft 518 kts 93°
2026-05-07 16:31 31.62582 119.55784 28164 ft 519 kts 93°
2026-05-07 16:32 31.62377 119.60016 27919 ft 520 kts 93°
2026-05-07 16:32 31.62174 119.64245 27661 ft 520 kts 93°
2026-05-07 16:32 31.61972 119.68482 27411 ft 521 kts 93°
2026-05-07 16:32 31.61776 119.72731 27161 ft 521 kts 93°
2026-05-07 16:33 31.61584 119.76982 26911 ft 522 kts 93°
2026-05-07 16:33 31.61393 119.81228 26654 ft 522 kts 93°
2026-05-07 16:33 31.61196 119.85483 26408 ft 522 kts 93°
2026-05-07 16:33 31.60995 119.89740 26158 ft 523 kts 93°
2026-05-07 16:34 31.60791 119.94000 25902 ft 523 kts 93°
2026-05-07 16:34 31.60590 119.98264 25660 ft 524 kts 93°
2026-05-07 16:34 31.60389 120.02530 25412 ft 524 kts 93°
2026-05-07 16:34 31.60188 120.06794 25164 ft 524 kts 93°
2026-05-07 16:35 31.59983 120.11073 24914 ft 525 kts 93°
2026-05-07 16:35 31.59773 120.15346 24663 ft 524 kts 93°
2026-05-07 16:35 31.59565 120.19550 24415 ft 523 kts 93°
2026-05-07 16:35 31.59354 120.23803 24166 ft 521 kts 93°
2026-05-07 16:36 31.59140 120.28024 23914 ft 519 kts 94°
2026-05-07 16:36 31.58638 120.32205 23659 ft 516 kts 103°
2026-05-07 16:36 31.57678 120.36242 23410 ft 513 kts 110°
2026-05-07 16:36 31.56502 120.40181 23161 ft 510 kts 110°
2026-05-07 16:37 31.55339 120.44104 22906 ft 508 kts 110°
2026-05-07 16:37 31.54190 120.48008 22667 ft 506 kts 110°
2026-05-07 16:37 31.53046 120.51902 22411 ft 504 kts 110°
2026-05-07 16:37 31.51905 120.55773 22159 ft 501 kts 110°
2026-05-07 16:38 31.50769 120.59624 21909 ft 499 kts 110°
2026-05-07 16:38 31.49636 120.63452 21660 ft 497 kts 110°
2026-05-07 16:38 31.48503 120.67274 21407 ft 495 kts 110°
2026-05-07 16:38 31.47377 120.71071 21152 ft 493 kts 110°
2026-05-07 16:39 31.46254 120.74851 20908 ft 490 kts 110°
2026-05-07 16:39 31.45131 120.78613 20662 ft 488 kts 110°
2026-05-07 16:39 31.44000 120.82354 20409 ft 486 kts 111°
2026-05-07 16:39 31.42853 120.86061 20159 ft 484 kts 111°
2026-05-07 16:40 31.41696 120.89746 19908 ft 481 kts 111°
2026-05-07 16:40 31.40445 120.93367 19651 ft 478 kts 117°
2026-05-07 16:40 31.38765 120.96704 19400 ft 474 kts 127°
2026-05-07 16:40 31.36717 120.99706 19153 ft 471 kts 132°
2026-05-07 16:41 31.34627 121.02642 18903 ft 469 kts 131°
2026-05-07 16:41 31.32554 121.05575 18652 ft 467 kts 131°
2026-05-07 16:41 31.30494 121.08502 18402 ft 465 kts 131°
2026-05-07 16:41 31.28444 121.11421 18154 ft 463 kts 131°
2026-05-07 16:42 31.26404 121.14323 17897 ft 461 kts 131°
2026-05-07 16:42 31.24369 121.17208 17641 ft 459 kts 131°
2026-05-07 16:42 31.22336 121.20076 17397 ft 458 kts 131°
2026-05-07 16:42 31.20308 121.22931 17146 ft 455 kts 131°
2026-05-07 16:43 31.18290 121.25774 16895 ft 453 kts 131°
2026-05-07 16:43 31.16282 121.28603 16645 ft 452 kts 131°
2026-05-07 16:43 31.14301 121.31432 16396 ft 450 kts 128°
2026-05-07 16:43 31.12655 121.34516 16142 ft 450 kts 117°
2026-05-07 16:44 31.11490 121.37899 15888 ft 450 kts 107°
2026-05-07 16:44 31.10677 121.41419 15643 ft 448 kts 105°
2026-05-07 16:44 31.09891 121.44869 15378 ft 431 kts 105°
2026-05-07 16:44 31.09131 121.48180 15133 ft 415 kts 105°
2026-05-07 16:45 31.08398 121.51373 14882 ft 400 kts 105°
2026-05-07 16:45 31.07686 121.54453 14639 ft 386 kts 105°
2026-05-07 16:45 31.06993 121.57432 14380 ft 374 kts 105°
2026-05-07 16:45 31.06324 121.60311 14129 ft 362 kts 105°
2026-05-07 16:46 31.05675 121.63106 13880 ft 351 kts 105°
2026-05-07 16:46 31.05048 121.65814 13631 ft 341 kts 105°
2026-05-07 16:46 31.04456 121.68454 13380 ft 332 kts 101°
2026-05-07 16:46 31.04276 121.71096 13065 ft 325 kts 86°
2026-05-07 16:47 31.04524 121.73074 12741 ft 323 kts 75°
2026-05-07 16:47 31.05204 121.75554 12316 ft 320 kts 70°
2026-05-07 16:47 31.05902 121.78006 11829 ft 317 kts 71°
2026-05-07 16:47 31.06586 121.80442 11279 ft 315 kts 71°
2026-05-07 16:48 31.07256 121.82844 10568 ft 309 kts 71°
2026-05-07 16:48 31.07911 121.85212 9781 ft 305 kts 71°
2026-05-07 16:48 31.08559 121.87553 9015 ft 301 kts 71°
2026-05-07 16:48 31.09192 121.89830 8272 ft 297 kts 71°
2026-05-07 16:49 31.09822 121.92099 7862 ft 280 kts 71°
2026-05-07 16:49 31.10107 121.94280 7329 ft 270 kts 97°
2026-05-07 16:49 31.09451 121.96273 6706 ft 264 kts 129°
2026-05-07 16:49 31.08057 121.97559 6053 ft 260 kts 159°
2026-05-07 16:50 31.06365 121.98206 5618 ft 253 kts 163°
2026-05-07 16:50 31.04663 121.98830 5561 ft 258 kts 163°
2026-05-07 16:50 31.02952 121.99464 5499 ft 258 kts 163°
2026-05-07 16:50 31.01244 122.00104 5427 ft 258 kts 162°
2026-05-07 16:51 31.00088 122.00539 5377 ft 258 kts 162°
2026-05-07 16:51 30.98382 122.01177 5285 ft 257 kts 163°
2026-05-07 16:51 30.96130 122.02019 5164 ft 257 kts 163°
2026-05-07 16:51 30.94432 122.02656 5074 ft 256 kts 162°
2026-05-07 16:52 30.93287 122.03086 5009 ft 256 kts 162°
2026-05-07 16:52 30.91594 122.03719 4925 ft 256 kts 162°
2026-05-07 16:52 30.89922 122.04344 4837 ft 256 kts 162°
2026-05-07 16:52 30.88294 122.04952 4750 ft 255 kts 162°
2026-05-07 16:53 30.86602 122.05583 4661 ft 255 kts 163°
2026-05-07 16:53 30.84912 122.06212 4571 ft 255 kts 162°
2026-05-07 16:53 30.83223 122.06841 4484 ft 255 kts 163°
2026-05-07 16:53 30.81487 122.07014 4357 ft 249 kts 192°
2026-05-07 16:54 30.79989 122.06160 4179 ft 237 kts 224°
2026-05-07 16:54 30.79091 122.04574 4136 ft 236 kts 252°
2026-05-07 16:54 30.78598 122.02749 4085 ft 237 kts 254°
2026-05-07 16:54 30.78097 122.00929 4032 ft 237 kts 253°
2026-05-07 16:55 30.77588 121.99108 3958 ft 236 kts 253°
2026-05-07 16:55 30.77081 121.97291 3868 ft 235 kts 253°
2026-05-07 16:55 30.76699 121.95512 3771 ft 222 kts 271°
2026-05-07 16:55 30.77116 121.93851 3702 ft 215 kts 307°
2026-05-07 16:56 30.78282 121.92827 3625 ft 212 kts 342°
2026-05-07 16:56 30.79699 121.92343 3554 ft 212 kts 343°
2026-05-07 16:56 30.82495 121.91288 3400 ft 211 kts 343°
2026-05-07 16:57 30.83871 121.90746 3330 ft 202 kts 342°
2026-05-07 16:57 30.85142 121.90254 3257 ft 184 kts 342°
2026-05-07 16:57 30.86301 121.89816 3195 ft 167 kts 343°
2026-05-07 16:57 30.87380 121.89411 3121 ft 159 kts 343°
2026-05-07 16:58 30.88424 121.89020 3051 ft 156 kts 343°
2026-05-07 16:58 30.89449 121.88635 3008 ft 154 kts 343°
2026-05-07 16:58 30.90473 121.88251 3010 ft 155 kts 343°
2026-05-07 16:58 30.91495 121.87867 3009 ft 154 kts 343°
2026-05-07 16:59 30.92515 121.87483 3006 ft 154 kts 343°
2026-05-07 16:59 30.93534 121.87102 3010 ft 154 kts 343°
2026-05-07 16:59 30.94549 121.86721 3020 ft 154 kts 343°
2026-05-07 16:59 30.95565 121.86339 3012 ft 153 kts 343°
2026-05-07 17:00 30.96579 121.85958 3006 ft 153 kts 344°
2026-05-07 17:00 30.97577 121.85584 2981 ft 149 kts 344°
2026-05-07 17:00 30.98559 121.85215 2855 ft 147 kts 344°
2026-05-07 17:00 30.99534 121.84848 2689 ft 147 kts 343°
2026-05-07 17:01 31.00503 121.84484 2506 ft 146 kts 344°
2026-05-07 17:01 31.01473 121.84119 2319 ft 146 kts 344°
2026-05-07 17:01 31.02438 121.83756 2127 ft 145 kts 344°
2026-05-07 17:01 31.03399 121.83394 1933 ft 145 kts 343°
2026-05-07 17:02 31.04344 121.83038 1744 ft 144 kts 343°
2026-05-07 17:02 31.05311 121.82674 1555 ft 144 kts 343°
2026-05-07 17:02 31.06263 121.82316 1361 ft 143 kts 344°
2026-05-07 17:02 31.07212 121.81959 1170 ft 144 kts 344°
2026-05-07 17:03 31.08151 121.81606 984 ft 143 kts 343°
2026-05-07 17:03 31.09097 121.81250 792 ft 143 kts 343°
2026-05-07 17:03 31.10048 121.80899 619 ft 143 kts 343°
2026-05-07 17:03 31.10988 121.80523 408 ft 143 kts 346°
2026-05-07 17:04 31.11936 121.80160 236 ft 144 kts 346°
2026-05-07 17:04 31.12888 121.79805 65 ft 144 kts 343°
2026-05-07 17:04 31.13791 121.79484 22 ft 119 kts 341°
2026-05-07 17:04 31.14284 121.79293 21 ft 30 kts 342°
2026-05-07 17:05 31.14466 121.79226 24 ft 26 kts 343°
2026-05-07 17:05 31.14644 121.79180 24 ft 27 kts 358°
2026-05-07 17:05 31.14783 121.79205 24 ft 0 kts 11°
2026-05-07 17:05 31.14790 121.79206 24 ft 2 kts 11°
2026-05-07 17:06 31.14828 121.79220 25 ft 10 kts 31°
2026-05-07 17:06 31.14861 121.79296 23 ft 12 kts 72°
2026-05-07 17:06 31.14889 121.79394 23 ft 14 kts 72°
2026-05-07 17:06 31.14919 121.79504 23 ft 15 kts 72°
2026-05-07 17:07 31.14962 121.79609 23 ft 12 kts 88°
2026-05-07 17:07 31.14930 121.79635 23 ft 6 kts 181°
2026-05-07 17:07 31.14830 121.79643 25 ft 20 kts 165°
2026-05-07 17:07 31.14696 121.79693 23 ft 21 kts 162°
2026-05-07 17:08 31.14555 121.79746 23 ft 22 kts 162°
2026-05-07 17:08 31.14409 121.79803 23 ft 23 kts 161°
2026-05-07 17:08 31.14255 121.79860 24 ft 24 kts 162°
2026-05-07 17:08 31.14100 121.79918 23 ft 24 kts 162°
2026-05-07 17:09 31.13992 121.79959 25 ft 15 kts 162°
2026-05-07 17:09 31.13921 121.79993 25 ft 6 kts 124°
2026-05-07 17:09 31.13919 121.80038 23 ft 6 kts 94°
2026-05-07 17:09 31.13918 121.80074 23 ft 1 kts 91°
2026-05-07 17:10 31.13918 121.80085 23 ft 2 kts 91°
2026-05-07 17:10 31.13918 121.80101 23 ft 0 kts 92°
2026-05-07 17:12 31.13918 121.80100 23 ft 0 kts 92°